SCOUT B DEB, 28795

Orbit data source: Space-Track

SCOUT B DEB, 28795 is space debris in LEO originally from a launch on Tue, 10 Aug 1965 UTC launched from the Wallops Island (WLPIS). Debris objects in space refer to the collection of defunct objects orbiting the Earth. Examples of debris include non-operational satellites, rocket bodies, and fragments generated from explosions, collisions, or faulty payload assembly.

Loading next visibility...
Identifier
28795, 1965-063E
Orbit
LEO
Last TLE update
11 months ago
Origin
Manufacturer
Unknown
Mission
Spacecraft
Bus & Motor
Unknown
Mass
Unknown
Launch date (UTC)
1965-08-10 (60 years ago)
Launch vehicle
Unknown
Launch site
Wallops Island (WLPIS)
Object type
Payload
Rocket body
Debris
Shape & HBR
Unknown
Radar Cross Section
Small (<0.1 m²)

Expand to show TLE details & history

TLE from 11 months ago
0 SCOUT B DEB
1 28795U 65063E   24145.88772174  .00000099  00000-0  92330-3 0  9999
2 28795  69.2207 223.0055 0763567  15.7149  88.9497 11.81696337122642
Epoch: 2024-05-24T21:18Z
Definitive object data (Epoch: 2024-05-24T21:18:19.158Z)
Latitude
59.20236°
Longitude
161.14919°
Altitude
1,809.227 km
Speed
6.969 km/s
True Right ascension
00h 14m 45s
True Declination
59° 04' 13"
Sunlit
Object was in daylight at TLE epoch
Visualization TLE readout
Latitude
60.05813°
Longitude
-12.39668°
Altitude
1,170.105 km
Speed
7.539 km/s
Apparent Right ascension
12h 44m 29s
Apparent Declination
15° 45' 15"
Sunlit
Object is in daylight
Visualization observer readout
Local Sidereal Time
00:47:30
Azimuth
0.878° NNE
Elevation
-34.325°
Doppler factor
1
Orbital elements
Apogee altitude
2,383.74 km
Perigee altitude
1,140.606 km
Semi-major axis
8,140.31 km
Eccentricity
0.0763567
Inclination
69.2207°
RAAN
223.0055°
Arg. of periapsis
15.7149°
True anomaly
97.67949°
Mean anomaly
88.9497°
Eccentric anomaly
93.31729°
Mean motion
2.95517 °/min
BSTAR
0.0009233
Orbital period
121.82 mins
Loading maneuver chart data...
Loading SW <> Apogee altitude chart data...
Loading historical data...
Loading historical data...
Loading historical data...
Loading historical data...
Loading historical data...
Loading historical data...
Loading historical data...

SCOUT B DEB Visibility forecast

Observer location: undefined°, undefined°

Span
Click to sort rows by Start time (UTC) header in descending order
Start Az.
Max El. time (UTC)
Max El. Az.
Max El.
End time (UTC)
End Az.
6 mins2025-05-09 18:12:59.597Z120.597° SE2025-05-09 18:15:59.597Z99.447° ESE13.292°2025-05-09 18:18:59.597Z76.533° E
14 mins2025-05-09 20:12:59.597Z199.981° SSW2025-05-09 20:19:59.597Z158.803° S44.721°2025-05-09 20:26:59.597Z27.289° NE
9 mins2025-05-09 22:21:59.597Z277.275° WNW2025-05-09 22:25:59.597Z311.899° NW19.202°2025-05-09 22:30:59.597Z357.734° N
12 mins2025-05-10 04:48:59.597Z355.926° N2025-05-10 04:53:59.597Z61.078° ENE33.046°2025-05-10 05:00:59.597Z124.363° SE
12 mins2025-05-10 06:53:59.597Z308.322° NW2025-05-10 06:58:59.597Z248.045° W30.944°2025-05-10 07:05:59.597Z190.939° SSW
|